Weather History for Dayton Wright, OH

Change the Weather History Date:

Wednesday, December 11, 2013

  Actual Average (KFFO) Record (KFFO)
Temperature  
Mean Temperature 22 °F -  
Max Temperature 33 °F 40 °F 64 °F (2007)
Min Temperature 12 °F 26 °F 10 °F (2013)
Degree Days  
Heating Degree Days 42    
Moisture  
Dew Point 15 °F    
Average Humidity 75    
Maximum Humidity 88    
Minimum Humidity 56    
Precipitation  
Precipitation 0.00 in - - ()
Sea Level Pressure  
Sea Level Pressure 30.39 in    
Wind  
Wind Speed 7 mph (WSW)    
Max Wind Speed 15 mph    
Max Gust Speed 22 mph    
Visibility 8 miles    
Events Snow    
Averages and records for this station are not official NWS values.
T = Trace of Precipitation, MM = Missing Value Source: NWS Daily Summary

Daily Weather History Graph

Daily Weather History Graph

Search for Another Location

Airport:

Trip Planner

Search our weather history database for the weather conditions in past years. The results will help you decide how hot, cold, wet, or windy it might be!

Date:

Astronomy

Dec. 11, 2013 Rise Set
Actual Time 7:47 AM EST 5:12 PM EST
Civil Twilight 7:17 AM EST 5:43 PM EST
Nautical Twilight 6:43 AM EST 6:16 PM EST
Astronomical Twilight 6:10 AM EST 6:49 PM EST
Moon 1:45 PM EST (12/11) 2:08 AM EST (12/11)
Length of Visible Light 10h 25m
Length of Day
9h 25m
Waxing Gibbous, 71% of the Moon is Illuminated
Dec 11
Waxing Gibbous
Dec 17
Full
Dec 25
Last Quarter
Jan 1
New
Jan 7
First Quarter

Hourly Weather History & Observations

Time (EST) Temp. Windchill Dew Point Humidity Pressure Visibility Wind Dir Wind Speed Gust Speed Precip Events Conditions
12:53 AM 19.0 °F 12.3 °F 10.9 °F 71% 30.37 in 10.0 mi SW 4.6 mph - N/A   Clear
1:53 AM 18.0 °F 11.1 °F 10.9 °F 74% 30.36 in 10.0 mi SW 4.6 mph - N/A   Clear
2:53 AM 15.1 °F 9.4 °F 10.0 °F 80% 30.37 in 10.0 mi South 3.5 mph - N/A   Clear
3:53 AM 12.0 °F 4.1 °F 9.0 °F 88% 30.38 in 10.0 mi South 4.6 mph - N/A   Clear
4:53 AM 12.0 °F 4.1 °F 9.0 °F 88% 30.38 in 10.0 mi South 4.6 mph - N/A   Mostly Cloudy
5:53 AM 12.9 °F 6.9 °F 10.0 °F 88% 30.38 in 9.0 mi South 3.5 mph - N/A   Partly Cloudy
6:53 AM 12.9 °F - 10.0 °F 88% 30.37 in 9.0 mi Calm Calm - N/A   Clear
7:53 AM 14.0 °F 3.9 °F 10.9 °F 88% 30.38 in 8.0 mi South 6.9 mph - N/A   Clear
8:53 AM 14.0 °F 6.5 °F 10.9 °F 88% 30.39 in 8.0 mi South 4.6 mph - N/A   Clear
9:53 AM 19.9 °F 9.3 °F 16.0 °F 85% 30.39 in 7.0 mi SSW 9.2 mph - N/A   Clear
10:53 AM 23.0 °F 11.7 °F 18.0 °F 81% 30.38 in 9.0 mi SSW 11.5 mph - N/A   Clear
11:53 AM 28.0 °F 17.5 °F 19.0 °F 69% 30.33 in 10.0 mi SSW 12.7 mph 19.6 mph N/A   Scattered Clouds
12:53 PM 30.9 °F 22.8 °F 19.9 °F 64% 30.30 in 10.0 mi SSW 9.2 mph 18.4 mph N/A   Clear
1:53 PM 32.0 °F 21.6 °F 18.0 °F 56% 30.28 in 10.0 mi SW 15.0 mph 20.7 mph N/A   Clear
2:53 PM 33.1 °F 24.4 °F 19.9 °F 59% 30.30 in 10.0 mi WSW 11.5 mph - N/A   Overcast
3:53 PM 30.9 °F 20.2 °F 18.0 °F 59% 30.32 in 10.0 mi West 15.0 mph 20.7 mph N/A   Clear
4:53 PM 27.0 °F 16.7 °F 18.0 °F 69% 30.37 in 10.0 mi WNW 11.5 mph - N/A   Mostly Cloudy
5:32 PM 26.6 °F 17.5 °F 19.4 °F 74% 30.34 in 7.0 mi NW 9.2 mph - N/A   Overcast
5:53 PM 26.1 °F 16.8 °F 19.9 °F 78% 30.40 in 3.0 mi NW 9.2 mph - 0.00 in Snow Light Snow
6:08 PM 24.8 °F 13.4 °F 19.4 °F 80% 30.35 in 2.5 mi WNW 12.7 mph - 0.00 in Snow Light Snow
6:15 PM 24.8 °F 14.0 °F 19.4 °F 80% 30.36 in 3.0 mi WNW 11.5 mph - 0.00 in Snow Light Snow
6:29 PM 24.8 °F 16.1 °F 19.4 °F 80% 30.37 in 2.5 mi NW 8.1 mph - 0.00 in Snow Light Snow
6:48 PM 24.8 °F 12.9 °F 19.4 °F 80% 30.37 in 3.0 mi NW 13.8 mph 19.6 mph 0.00 in Snow Light Snow
6:53 PM 24.1 °F 12.0 °F 18.0 °F 77% 30.43 in 4.0 mi NW 13.8 mph 21.9 mph 0.00 in Snow Light Snow
7:30 PM 23.0 °F 11.7 °F 15.8 °F 74% 30.40 in 10.0 mi NW 11.5 mph - 0.00 in   Overcast
7:53 PM 23.0 °F 11.7 °F 12.9 °F 65% 30.46 in 10.0 mi NW 11.5 mph - 0.00 in   Overcast
8:29 PM 21.2 °F 8.3 °F 12.2 °F 68% 30.42 in 10.0 mi WNW 13.8 mph - N/A   Overcast
8:53 PM 21.9 °F 9.2 °F 10.9 °F 63% 30.48 in 10.0 mi WNW 13.8 mph 19.6 mph N/A   Overcast
9:53 PM 19.9 °F 9.3 °F 10.9 °F 68% 30.49 in 10.0 mi NW 9.2 mph - N/A   Mostly Cloudy
10:53 PM 18.0 °F 7.7 °F 9.0 °F 68% 30.51 in 10.0 mi NW 8.1 mph - N/A   Clear
11:53 PM 16.0 °F - 9.0 °F 74% 30.51 in 10.0 mi Calm Calm - N/A   Mostly Cloudy